[[{"header":{"parameterUnit":"m.s-1","parameterCategory":1,"la1":30.2991,"la2":30.254,"lo1":-89.0895,"lo2":-89.0444,"dy":0.0017,"dx":0.0017,"nx":28,"ny":28,"refTime":"2026-03-03T03:00:00:Z","depth":0,"parameterNumber":2,"parameterNumberName":"U-component_of_WINDS"},"data":[0,0,0,0,0,0,0,0,0,0,0,0,0,0,0,0,0,0,0,0,0,0,0,0,0,0,0,0,0,0,0,0,0,0,0,0,0,0,0,0,0,0,0,0,0,0,0,0,0,0,0,0,0,0,0,0,0,0,-4.7148,-4.7149,0,-4.7233,-4.7234,-4.7235,-4.7191,-4.7189,-4.7187,-4.7185,-4.727,-4.7274,-4.7278,0,0,0,0,0,0,0,0,0,0,0,0,0,-4.6948,-4.6952,-4.7148,-4.7149,-4.715,-4.7233,-4.7234,-4.7235,-4.7192,-4.7189,-4.7186,-4.7184,-4.7268,-4.7274,-4.7279,0,0,0,0,0,0,0,0,0,0,0,0,0,-4.7034,-4.6953,-4.7148,-4.7138,-4.7138,-4.7233,-4.7234,-4.7235,-4.7192,-4.7189,-4.7185,-4.7182,-4.7267,-4.7273,-4.7279,-4.7387,0,0,-4.7299,-4.7302,0,0,0,0,0,0,0,0,-4.7029,-4.7042,-4.7139,-4.7139,-4.7139,-4.7198,-4.7195,-4.7286,-4.7193,-4.7172,-4.7184,-4.7181,-4.7249,-4.7256,-4.728,-4.7391,-4.7395,-4.73,-4.7304,-4.7307,-4.7309,0,0,0,0,0,0,0,-4.7023,-4.7038,-4.7181,-4.714,-4.7141,-4.713,-4.7138,-4.7212,-4.7228,-4.7173,-4.717,-4.7181,-4.7248,-4.7273,-4.7281,-4.7396,-4.73,-4.7306,-4.731,-4.7312,-4.7601,-4.7605,0,0,0,0,0,0,-4.7018,-4.7033,-4.7179,-4.7184,-4.7075,-4.7136,-4.7146,-4.7183,-4.7227,-4.7231,-4.7184,-4.7179,-4.7264,-4.7274,-4.7284,-4.7413,-4.7307,-4.7313,-4.7317,-4.7598,-4.7602,-4.7606,0,0,0,0,0,0,-4.7014,-4.7031,-4.7175,-4.7108,-4.7125,-4.7143,-4.7185,-4.7186,-4.7211,-4.7235,-4.7238,-4.7207,-4.7262,-4.7275,-4.7362,-4.7415,-4.7316,-4.7322,-4.7593,-4.7599,-4.7604,-4.7672,0,0,0,0,0,0,-4.7008,-4.703,-4.7071,-4.7109,-4.7129,-4.7252,-4.7188,-4.719,-4.7223,-4.7217,-4.7257,-4.7261,-4.726,-4.7353,-4.7369,-4.7423,-4.7327,-4.7589,-4.7596,-4.7603,-4.7665,-4.7679,-4.7691,0,0,0,0,0,-4.7001,-4.7086,-4.7073,-4.7091,-4.7181,-4.7255,-4.7267,-4.7265,-4.7227,-4.7269,-4.7284,-4.7259,-4.7408,-4.7362,-4.738,-4.7436,-4.7585,-4.7594,-4.7602,-4.7659,-4.7676,-4.7691,0,0,0,0,0,0,-4.7052,-4.7091,-4.7077,-4.7177,-4.7213,-4.7248,-4.7299,-4.7283,-4.733,-4.7323,-4.7318,-4.7328,-4.7418,-4.7436,-4.7385,-4.7544,-4.7491,-4.7503,-4.7528,-4.7544,-4.7557,-4.755,-4.7332,0,0,0,0,0,-4.7076,-4.7133,-4.7164,-4.7249,-4.7268,-4.7281,-4.7313,-4.7309,-4.7346,-4.7361,-4.7383,-4.742,-4.7475,-4.7511,-4.7563,-4.7668,-4.7676,-4.7716,-4.773,-4.774,-4.775,-4.7808,-4.7826,-4.7634,-4.7634,-4.7634,0,0,-4.7123,-4.7151,-4.7188,-4.726,-4.7287,-4.7347,-4.7294,-4.7359,-4.7403,-4.7371,-4.7454,-4.7473,-4.7514,-4.7611,-4.7654,-4.7628,-4.7806,-4.7751,-4.7759,-4.7763,-4.7818,-4.7836,-4.7852,-4.764,-4.7639,-4.7638,0,0,-4.724,-4.7268,-4.7341,-4.7371,-4.7415,-4.7423,-4.7441,-4.7479,-4.749,-4.7575,-4.7552,-4.7605,-4.77,-4.773,-4.7758,-4.789,-4.7869,-4.7908,-4.7975,-4.8031,-4.8046,-4.806,-4.8106,-4.8123,-4.7918,-4.7918,-4.7918,0,-4.7293,-4.7382,-4.7381,-4.7449,-4.7481,-4.7457,-4.7532,-4.7561,-4.7619,-4.7642,-4.7612,-4.7732,-4.7758,-4.7862,-4.7894,-4.7918,-4.7938,-4.7901,-4.8044,-4.8058,-4.807,-4.8114,-4.8132,-4.7923,-4.7922,-4.7922,-4.7921,0,-4.7446,-4.7508,-4.7563,-4.7621,-4.766,-4.773,-4.774,-4.778,-4.7774,-4.7786,-4.7873,-4.7904,-4.7962,-4.7987,-4.798,-4.809,-4.8073,-4.8045,-4.7991,-4.8093,-4.8134,-4.8151,-4.7929,-4.7927,-4.7926,-4.7925,0,0,-4.7593,-4.7652,-4.7672,-4.7698,-4.7746,-4.7794,-4.7865,-4.7923,-4.7957,-4.7999,-4.8057,-4.814,-4.8115,-4.8147,-4.8144,-4.8194,-4.8296,-4.8159,-4.816,-4.8182,-4.8419,-4.8438,-4.8458,-4.8284,-4.8287,-4.829,-4.8415,0,-4.7712,-4.7835,-4.7838,-4.7951,-4.8009,-4.7989,-4.8051,-4.8087,-4.8101,-4.8152,-4.8168,-4.8226,-4.8188,-4.8208,-4.8256,-4.8273,-4.8343,-4.8265,-4.8337,-4.834,-4.8325,-4.848,-4.85,-4.8616,-4.8431,-4.8434,-4.8436,0,-4.7866,-4.7914,-4.8034,-4.8075,-4.8099,-4.8154,-4.8208,-4.8258,-4.83,-4.8306,-4.8344,-4.8335,-4.8407,-4.8354,-4.8453,-4.84,-4.8431,-4.8444,-4.8449,-4.8453,-4.8392,-4.8487,-4.8654,-4.867,-4.8462,-4.846,-4.8458,0,-4.796,-4.8055,-4.8139,-4.8163,-4.8213,-4.8252,-4.8275,-4.8313,-4.8349,-4.8396,-4.8419,-4.8475,-4.8505,-4.8548,-4.8554,-4.8515,-4.8655,-4.8602,-4.8662,-4.8661,-4.8689,-4.8687,-4.8861,-4.8713,-4.8713,-4.8712,-4.8712,0,-4.8091,-4.8165,-4.8182,-4.8233,-4.8316,-4.8319,-4.84,-4.842,-4.8455,-4.8509,-4.8496,-4.8548,-4.8554,-4.8608,-4.8614,-4.8695,-4.871,-4.8717,-4.8717,-4.8717,-4.8715,-4.8734,-4.8726,-4.8717,-4.8716,-4.8715,-4.8714,0,-4.8209,-4.8223,-4.8313,-4.8355,-4.8367,-4.8426,-4.8461,-4.851,-4.8525,-4.8594,-4.8611,-4.8633,-4.8696,-4.8707,-4.8781,-4.8785,-4.8882,-4.8875,-4.8868,-4.8866,-4.8925,-4.8919,-4.9116,-4.9142,-4.8978,-4.898,-4.8981,0,-4.829,-4.8346,-4.8394,-4.8431,-4.8456,-4.8514,-4.8551,-4.8558,-4.8596,-4.8649,-4.8692,-4.8754,-4.8803,-4.8905,-4.8927,-4.8984,-4.8977,-4.9043,-4.8985,-4.8984,-4.8976,-4.8972,-4.8977,-4.9052,-4.9054,-4.9056,-4.9057,0,-4.8432,-4.8438,-4.8491,-4.8548,-4.8592,-4.8637,-4.868,-4.871,-4.8723,-4.8767,-4.8832,-4.887,-4.8947,-4.9008,-4.9066,-4.9089,-4.9075,-4.9076,-4.9092,-4.9091,-4.9084,-4.9087,-4.8896,-4.907,-4.9069,-4.9068,-4.9067,-4.9066,-4.8533,-4.8582,-4.8624,-4.8685,-4.8718,-4.8759,-4.8808,-4.8829,-4.8883,-4.8946,-4.8948,-4.9018,-4.906,-4.9136,-4.9164,-4.9219,-4.9198,-4.9222,-4.9228,-4.9233,-4.9238,-4.9078,-4.923,-4.9229,-4.9229,-4.9229,-4.9229,0,-4.8673,-4.87,-4.8756,-4.8817,-4.8865,-4.885,-4.8897,-4.8938,-4.9,-4.9041,-4.9091,-4.9166,-4.9226,-4.9255,-4.9315,-4.9354,-4.9349,-4.9369,-4.9365,-4.937,-4.9254,-4.9233,-4.9372,-4.9372,-4.9372,-4.9372,-4.9372,-4.9372,-4.8751,-4.8834,-4.8845,-4.8945,-4.8971,-4.9041,-4.9069,-4.9107,-4.914,-4.9224,-4.9275,-4.9294,-4.933,-4.9393,-4.9448,-4.9454,-4.9476,-4.9499,-4.9503,-4.9393,-4.9378,-4.9364,-4.9344,-4.9504,-4.9504,-4.9614,-4.9615,-4.9616]},{"header":{"parameterUnit":"m.s-1","parameterCategory":1,"la1":30.2991,"la2":30.254,"lo1":-89.0895,"lo2":-89.0444,"dy":0.0017,"dx":0.0017,"nx":28,"ny":28,"refTime":"2026-03-03T03:00:00:Z","depth":0,"parameterNumber":3,"parameterNumberName":"V-component_of_WINDS"},"data":[0,0,0,0,0,0,0,0,0,0,0,0,0,0,0,0,0,0,0,0,0,0,0,0,0,0,0,0,0,0,0,0,0,0,0,0,0,0,0,0,0,0,0,0,0,0,0,0,0,0,0,0,0,0,0,0,0,0,1.5234,1.5234,0,1.5249,1.525,1.525,1.5263,1.5263,1.5263,1.5264,1.5275,1.5275,1.5275,0,0,0,0,0,0,0,0,0,0,0,0,0,1.5214,1.5214,1.5234,1.5234,1.5234,1.5249,1.525,1.525,1.5263,1.5263,1.5263,1.5264,1.5275,1.5275,1.5275,0,0,0,0,0,0,0,0,0,0,0,0,0,1.5225,1.5214,1.5234,1.5243,1.5244,1.5249,1.525,1.525,1.5263,1.5263,1.5263,1.5264,1.5275,1.5275,1.5275,1.5272,0,0,1.5276,1.5276,0,0,0,0,0,0,0,0,1.5224,1.5226,1.5241,1.5242,1.5243,1.5255,1.5247,1.5257,1.5263,1.5256,1.5264,1.5264,1.5268,1.5269,1.5271,1.5273,1.5273,1.5276,1.5276,1.5276,1.5277,0,0,0,0,0,0,0,1.5224,1.5225,1.524,1.5241,1.5243,1.5245,1.5247,1.5249,1.526,1.5256,1.5257,1.5259,1.5268,1.5271,1.5271,1.5273,1.5276,1.5276,1.5277,1.5277,1.5276,1.5276,0,0,0,0,0,0,1.5222,1.5224,1.5239,1.524,1.5234,1.5246,1.5248,1.5251,1.526,1.5262,1.5259,1.526,1.527,1.5271,1.5272,1.527,1.5276,1.5277,1.5277,1.5276,1.5276,1.5276,0,0,0,0,0,0,1.5221,1.5223,1.5239,1.5233,1.5235,1.5246,1.5249,1.5251,1.5253,1.5262,1.5264,1.5259,1.527,1.5271,1.5273,1.5271,1.5277,1.5277,1.5276,1.5276,1.5276,1.5266,0,0,0,0,0,0,1.5221,1.5223,1.5222,1.5233,1.5235,1.524,1.5249,1.5251,1.5254,1.5255,1.5263,1.5264,1.5271,1.5272,1.5273,1.5271,1.5277,1.5276,1.5276,1.5276,1.5266,1.5265,1.5264,0,0,0,0,0,1.522,1.5217,1.5222,1.5223,1.5234,1.524,1.5241,1.525,1.5254,1.5253,1.5259,1.5264,1.5271,1.5272,1.5273,1.5271,1.5276,1.5276,1.5276,1.5267,1.5265,1.5264,0,0,0,0,0,0,1.5203,1.5218,1.5224,1.5224,1.5231,1.5242,1.5241,1.5248,1.5252,1.5253,1.5262,1.5263,1.5264,1.5268,1.5269,1.527,1.5275,1.5274,1.5267,1.5266,1.5265,1.5264,1.5277,0,0,0,0,0,1.52,1.5204,1.5217,1.5216,1.5219,1.523,1.5232,1.5239,1.5245,1.5248,1.5254,1.5259,1.5263,1.5265,1.5268,1.5267,1.527,1.5266,1.5265,1.5265,1.5264,1.5266,1.5265,1.5274,1.5274,1.5274,0,0,1.5192,1.5201,1.5203,1.5213,1.5219,1.5223,1.5232,1.5234,1.5238,1.5247,1.525,1.5255,1.5262,1.5263,1.5263,1.5266,1.5263,1.5264,1.5263,1.5263,1.5266,1.5265,1.5264,1.5274,1.5274,1.5274,0,0,1.518,1.5187,1.5189,1.5195,1.5205,1.5213,1.5213,1.5224,1.5229,1.5232,1.524,1.5244,1.5249,1.5254,1.5258,1.5252,1.5257,1.5253,1.5247,1.5249,1.5248,1.5247,1.5247,1.5246,1.5252,1.5252,1.5252,0,1.5169,1.5176,1.5188,1.5192,1.5196,1.5208,1.521,1.5215,1.5225,1.5228,1.5231,1.524,1.5245,1.5249,1.5248,1.525,1.5251,1.5251,1.5247,1.5247,1.5247,1.5246,1.5245,1.5252,1.5252,1.5252,1.5252,0,1.5163,1.5168,1.5168,1.518,1.5185,1.5187,1.5199,1.5202,1.5209,1.5216,1.522,1.5227,1.5234,1.5235,1.524,1.524,1.5242,1.5246,1.5251,1.5245,1.5245,1.5244,1.5251,1.5251,1.5251,1.5251,0,0,1.5139,1.516,1.516,1.5167,1.518,1.5184,1.5187,1.5196,1.5199,1.5206,1.521,1.5216,1.5221,1.5225,1.5231,1.5233,1.523,1.5237,1.5238,1.5236,1.5231,1.5228,1.5228,1.5234,1.5234,1.5234,1.5231,0,1.513,1.5139,1.5151,1.5155,1.5161,1.5174,1.5177,1.5186,1.5193,1.5199,1.5206,1.5211,1.5217,1.522,1.5222,1.523,1.5229,1.523,1.5237,1.5237,1.5235,1.5227,1.5224,1.5221,1.5231,1.5231,1.5231,0,1.512,1.513,1.5135,1.5151,1.5154,1.5157,1.5167,1.5172,1.5182,1.5188,1.5194,1.5202,1.5207,1.5212,1.5219,1.5219,1.5223,1.5228,1.5228,1.5229,1.5234,1.5229,1.522,1.522,1.5231,1.5231,1.5231,0,1.5104,1.5117,1.5123,1.5129,1.5147,1.5149,1.5156,1.5167,1.5172,1.5181,1.5185,1.5193,1.5197,1.5203,1.5214,1.5216,1.522,1.5225,1.5225,1.5225,1.5225,1.5225,1.5217,1.5227,1.5227,1.5227,1.5227,0,1.5093,1.5096,1.5117,1.512,1.5125,1.5139,1.5143,1.5151,1.5161,1.5167,1.5178,1.5182,1.5195,1.5202,1.521,1.5215,1.5217,1.5221,1.5223,1.5221,1.522,1.5223,1.5224,1.5226,1.5226,1.5226,1.5227,0,1.5074,1.5088,1.5096,1.5114,1.5119,1.5121,1.5136,1.514,1.515,1.5157,1.5159,1.5173,1.5182,1.5193,1.5204,1.5209,1.5214,1.5217,1.5211,1.5212,1.5212,1.5212,1.5206,1.5206,1.5215,1.5215,1.5215,0,1.5066,1.507,1.5089,1.5095,1.5103,1.5111,1.5117,1.5132,1.5138,1.5152,1.5154,1.5164,1.5173,1.5185,1.5196,1.5205,1.5209,1.5206,1.521,1.5208,1.521,1.521,1.5211,1.5205,1.5205,1.5205,1.5205,0,1.5051,1.5059,1.5069,1.5082,1.509,1.51,1.511,1.5114,1.5131,1.5137,1.5147,1.5154,1.5167,1.5177,1.5188,1.5195,1.5203,1.5204,1.5204,1.5201,1.5198,1.5201,1.5209,1.5203,1.5203,1.5204,1.5204,1.5204,1.5038,1.5043,1.5059,1.5069,1.508,1.509,1.5096,1.5108,1.5117,1.513,1.5138,1.5148,1.516,1.5176,1.5184,1.5191,1.5194,1.5194,1.5195,1.5195,1.5195,1.5197,1.5193,1.5193,1.5193,1.5193,1.5193,0,1.5025,1.5036,1.5047,1.5063,1.5072,1.5081,1.5094,1.51,1.511,1.5122,1.5131,1.5143,1.5154,1.5167,1.5178,1.5182,1.5186,1.5184,1.5184,1.5186,1.5191,1.519,1.5181,1.5181,1.5181,1.5181,1.5181,1.5181,1.5019,1.5028,1.5038,1.5053,1.5064,1.5075,1.5082,1.5092,1.5102,1.5116,1.5126,1.5135,1.5148,1.5161,1.5171,1.5175,1.5178,1.5176,1.5181,1.5184,1.5185,1.5186,1.5186,1.5177,1.5177,1.5176,1.5176,1.5176]}]]